Weather History for St. Petersburg, FL

Change the Weather History Date:

Saturday, December 7, 2013

  Actual Average Record
Temperature  
Mean Temperature 74 °F -  
Max Temperature 81 °F 73 °F 85 °F (1978)
Min Temperature 68 °F 57 °F 33 °F (1996)
Cooling Degree Days 10    
Growing Degree Days 24 (Base 50)    
Moisture  
Dew Point 67 °F    
Average Humidity 83    
Maximum Humidity 97    
Minimum Humidity 60    
Precipitation  
Precipitation 0.00 in - - ()
Sea Level Pressure  
Sea Level Pressure 30.18 in    
Wind  
Wind Speed 2 mph (East)    
Max Wind Speed 7 mph    
Max Gust Speed -    
Visibility 10 miles    
Events      
Averages and records for this station are not official NWS values.
T = Trace of Precipitation, MM = Missing Value Source: NWS Daily Summary

Daily Weather History Graph

Daily Weather History Graph

Search for Another Location

Airport:

Trip Planner

Search our weather history database for the weather conditions in past years. The results will help you decide how hot, cold, wet, or windy it might be!

Date:

Astronomy

Dec. 07, 2013 Rise Set
Actual Time 7:08 AM EST 5:35 PM EST
Civil Twilight 6:43 AM EST 6:01 PM EST
Nautical Twilight 6:14 AM EST 6:30 PM EST
Astronomical Twilight 5:45 AM EST 6:58 PM EST
Moon 11:10 AM EST (12/7) 10:55 PM EST (12/7)
Length of Visible Light 11h 18m
Length of Day
10h 26m
Waxing Crescent, 29% of the Moon is Illuminated
Dec 7
Waxing Crescent
Dec 9
First Quarter
Dec 17
Full
Dec 25
Last Quarter
Jan 1
New

Hourly Weather History & Observations

Time (EST) Temp. Heat Index Dew Point Humidity Pressure Visibility Wind Dir Wind Speed Gust Speed Precip Events Conditions
12:53 AM 70.0 °F - 69.1 °F 97% 30.16 in 8.0 mi Calm Calm - N/A   Scattered Clouds
1:53 AM 69.1 °F - 68.0 °F 96% 30.16 in 10.0 mi South 4.6 mph - N/A   Partly Cloudy
2:53 AM 69.1 °F - 68.0 °F 96% 30.15 in 10.0 mi Calm Calm - N/A   Mostly Cloudy
3:53 AM 70.0 °F - 69.1 °F 97% 30.16 in 9.0 mi Calm Calm - N/A   Partly Cloudy
4:53 AM 69.1 °F - 68.0 °F 96% 30.16 in 8.0 mi SSE 3.5 mph - N/A   Clear
5:53 AM 68.0 °F - 66.9 °F 96% 30.17 in 10.0 mi Calm Calm - N/A   Clear
6:53 AM 69.1 °F - 66.9 °F 93% 30.19 in 10.0 mi Calm Calm - N/A   Clear
7:53 AM 69.1 °F - 66.0 °F 90% 30.21 in 10.0 mi SSE 3.5 mph - N/A   Clear
8:53 AM 70.0 °F - 66.9 °F 90% 30.22 in 10.0 mi South 4.6 mph - N/A   Clear
9:53 AM 72.0 °F - 66.9 °F 84% 30.23 in 10.0 mi Calm Calm - N/A   Clear
10:53 AM 75.9 °F - 68.0 °F 76% 30.23 in 10.0 mi Calm Calm - N/A   Clear
11:53 AM 75.9 °F - 70.0 °F 82% 30.21 in 10.0 mi East 3.5 mph - N/A   Clear
12:53 PM 78.1 °F - 70.0 °F 76% 30.19 in 10.0 mi Calm Calm - N/A   Clear
1:53 PM 80.1 °F 82.3 °F 66.9 °F 64% 30.16 in 10.0 mi Calm Calm - N/A   Clear
2:53 PM 81.0 °F 83.0 °F 66.0 °F 60% 30.14 in 10.0 mi Calm Calm - N/A   Clear
3:53 PM 80.1 °F 82.1 °F 66.0 °F 62% 30.13 in 10.0 mi Calm Calm - N/A   Clear
4:53 PM 80.1 °F 81.9 °F 64.9 °F 60% 30.14 in 10.0 mi Calm Calm - N/A   Clear
5:53 PM 75.9 °F - 66.9 °F 74% 30.14 in 10.0 mi West 6.9 mph - N/A   Clear
6:53 PM 75.0 °F - 66.0 °F 73% 30.16 in 10.0 mi NW 4.6 mph - N/A   Clear
7:53 PM 73.0 °F - 66.9 °F 81% 30.17 in 10.0 mi North 5.8 mph - N/A   Clear
8:53 PM 73.0 °F - 66.9 °F 81% 30.17 in 10.0 mi NNE 6.9 mph - N/A   Clear
9:53 PM 72.0 °F - 68.0 °F 87% 30.19 in 10.0 mi NNE 4.6 mph - N/A   Clear
10:53 PM 72.0 °F - 68.0 °F 87% 30.19 in 10.0 mi NE 5.8 mph - N/A   Clear
11:53 PM 72.0 °F - 66.9 °F 84% 30.19 in 10.0 mi ESE 6.9 mph - N/A   Clear